GJS4182 KLBB-KDSM

Flight info

Callsign GJS4182
Flight time N/A
Altitude 35000
Route LBB MMB J26 ICT STJ DSM
Aircraft CRJ7/M-SDFGIRWY/S

Departure

Time 2026-04-23 23:05
Airport Lubbock Preston Smith International Airport (KLBB)

Arrival

Time N/A
Airport Des Moines International Airport (KDSM)
Time Latitude Longitude Altitude Speed Heading
2026-04-23 22:46 33.65734 -101.82259 3261 ft 0 kts 180°
2026-04-23 22:56 33.65718 -101.82271 3262 ft 7 kts 240°
2026-04-23 22:56 33.65731 -101.82309 3262 ft 6 kts 338°
2026-04-23 22:56 33.65789 -101.82309 3263 ft 11 kts 358°
2026-04-23 22:57 33.65867 -101.82344 3263 ft 12 kts 334°
2026-04-23 22:57 33.65946 -101.82376 3265 ft 12 kts 351°
2026-04-23 22:57 33.65971 -101.82381 3265 ft 6 kts 351°
2026-04-23 22:57 33.66027 -101.82428 3263 ft 14 kts 287°
2026-04-23 22:58 33.66030 -101.82560 3261 ft 17 kts 270°
2026-04-23 22:58 33.66054 -101.82683 3259 ft 12 kts 330°
2026-04-23 22:58 33.66136 -101.82694 3261 ft 12 kts 359°
2026-04-23 22:58 33.66228 -101.82694 3262 ft 14 kts 360°
2026-04-23 22:59 33.66331 -101.82694 3261 ft 15 kts 359°
2026-04-23 22:59 33.66439 -101.82696 3265 ft 16 kts 359°
2026-04-23 22:59 33.66552 -101.82696 3271 ft 18 kts
2026-04-23 22:59 33.66691 -101.82697 3273 ft 22 kts 359°
2026-04-23 23:00 33.66857 -101.82698 3275 ft 24 kts 359°
2026-04-23 23:00 33.67023 -101.82699 3275 ft 24 kts 360°
2026-04-23 23:00 33.67199 -101.82700 3274 ft 26 kts 360°
2026-04-23 23:00 33.67378 -101.82702 3276 ft 26 kts 359°
2026-04-23 23:01 33.67561 -101.82703 3276 ft 27 kts 360°
2026-04-23 23:01 33.67738 -101.82705 3277 ft 24 kts 358°
2026-04-23 23:01 33.67903 -101.82706 3285 ft 23 kts 360°
2026-04-23 23:01 33.68060 -101.82707 3289 ft 21 kts 360°
2026-04-23 23:02 33.68126 -101.82747 3292 ft 13 kts 293°
2026-04-23 23:02 33.68130 -101.82788 3291 ft 0 kts 273°
2026-04-23 23:03 33.68131 -101.82790 3291 ft 2 kts 273°
2026-04-23 23:03 33.68130 -101.82852 3291 ft 13 kts 262°
2026-04-23 23:03 33.68089 -101.82903 3290 ft 0 kts 178°
2026-04-23 23:04 33.68088 -101.82903 3290 ft 1 kts 178°
2026-04-23 23:04 33.67893 -101.82903 3285 ft 68 kts 180°
2026-04-23 23:04 33.67125 -101.82899 3279 ft 148 kts 180°
2026-04-23 23:04 33.65965 -101.82895 3598 ft 188 kts 180°
2026-04-23 23:05 33.64549 -101.82903 4107 ft 210 kts 180°
2026-04-23 23:05 33.63042 -101.82955 4732 ft 229 kts 181°
2026-04-23 23:05 33.61387 -101.82958 5370 ft 247 kts 179°
2026-04-23 23:05 33.59625 -101.82820 6148 ft 259 kts 177°
2026-04-23 23:06 33.57845 -101.82318 6937 ft 273 kts 154°
2026-04-23 23:06 33.56492 -101.80651 7743 ft 293 kts 121°
2026-04-23 23:06 33.56024 -101.78231 8523 ft 308 kts 89°
2026-04-23 23:06 33.56606 -101.75751 9394 ft 315 kts 58°
2026-04-23 23:07 33.58077 -101.73823 10216 ft 315 kts 34°
2026-04-23 23:07 33.59884 -101.72346 11114 ft 316 kts 28°
2026-04-23 23:07 33.61858 -101.70961 11574 ft 343 kts 25°
2026-04-23 23:07 33.64025 -101.69571 12035 ft 373 kts 24°
2026-04-23 23:08 33.66359 -101.68118 13041 ft 382 kts 24°
2026-04-23 23:08 33.68743 -101.66653 14132 ft 387 kts 24°
2026-04-23 23:08 33.71142 -101.65131 15214 ft 392 kts 25°
2026-04-23 23:08 33.73555 -101.63568 16272 ft 396 kts 25°
2026-04-23 23:09 33.75993 -101.61986 17270 ft 401 kts 24°
2026-04-23 23:09 33.78461 -101.60382 18198 ft 405 kts 24°
2026-04-23 23:09 33.80953 -101.58764 18994 ft 410 kts 24°
2026-04-23 23:09 33.83471 -101.57128 19788 ft 414 kts 24°
2026-04-23 23:10 33.86016 -101.55473 20532 ft 418 kts 24°
2026-04-23 23:10 33.88592 -101.53797 21243 ft 423 kts 24°
2026-04-23 23:10 33.91193 -101.52103 21956 ft 427 kts 24°
2026-04-23 23:10 33.93821 -101.50390 22635 ft 432 kts 24°
2026-04-23 23:11 33.96479 -101.48653 23299 ft 436 kts 24°
2026-04-23 23:11 33.99162 -101.46904 23829 ft 441 kts 24°
2026-04-23 23:11 34.01866 -101.45135 24376 ft 444 kts 24°
2026-04-23 23:11 34.04596 -101.43350 24891 ft 448 kts 24°
2026-04-23 23:12 34.07351 -101.41549 25378 ft 452 kts 24°
2026-04-23 23:12 34.10128 -101.39730 25835 ft 456 kts 24°
2026-04-23 23:12 34.12925 -101.37897 26287 ft 460 kts 24°
2026-04-23 23:12 34.15750 -101.36047 26712 ft 464 kts 24°
2026-04-23 23:13 34.18592 -101.34177 27122 ft 468 kts 24°
2026-04-23 23:13 34.21462 -101.32294 27511 ft 471 kts 24°
2026-04-23 23:13 34.24356 -101.30391 27888 ft 475 kts 24°
2026-04-23 23:13 34.27270 -101.28473 28279 ft 478 kts 24°
2026-04-23 23:14 34.30204 -101.26542 28642 ft 482 kts 24°
2026-04-23 23:14 34.33162 -101.24594 28988 ft 486 kts 24°
2026-04-23 23:14 34.36136 -101.22633 29345 ft 489 kts 24°
2026-04-23 23:14 34.39130 -101.20656 29663 ft 492 kts 24°
2026-04-23 23:15 34.42123 -101.18674 30241 ft 486 kts 24°
2026-04-23 23:15 34.45057 -101.16731 30985 ft 477 kts 24°
2026-04-23 23:15 34.47964 -101.14815 31431 ft 476 kts 24°
2026-04-23 23:15 34.50870 -101.12893 31816 ft 475 kts 24°
2026-04-23 23:16 34.53769 -101.10969 32193 ft 475 kts 24°
2026-04-23 23:16 34.56669 -101.09048 32574 ft 475 kts 24°
2026-04-23 23:16 34.59563 -101.07128 32948 ft 474 kts 24°
2026-04-23 23:16 34.62416 -101.05232 33300 ft 474 kts 24°
2026-04-23 23:17 34.65342 -101.03286 33640 ft 473 kts 24°
2026-04-23 23:17 34.68229 -101.01366 33929 ft 473 kts 24°
2026-04-23 23:17 34.71073 -100.99473 34206 ft 472 kts 24°
2026-04-23 23:17 34.73958 -100.97550 34420 ft 474 kts 24°
2026-04-23 23:18 34.76859 -100.95615 34518 ft 478 kts 24°
2026-04-23 23:18 34.82723 -100.91698 34594 ft 481 kts 24°
2026-04-23 23:19 34.88596 -100.87769 34600 ft 482 kts 24°
2026-04-23 23:19 34.94479 -100.83826 34602 ft 483 kts 24°
2026-04-23 23:20 35.00375 -100.79870 34600 ft 485 kts 24°
2026-04-23 23:20 35.06299 -100.75888 34602 ft 488 kts 24°
2026-04-23 23:21 35.12253 -100.71877 34598 ft 490 kts 24°
2026-04-23 23:21 35.18242 -100.67837 34595 ft 492 kts 24°
2026-04-23 23:22 35.24245 -100.63778 34594 ft 494 kts 24°
2026-04-23 23:22 35.30271 -100.59702 34587 ft 496 kts 24°
2026-04-23 23:23 35.36312 -100.55606 34589 ft 497 kts 24°
2026-04-23 23:23 35.42361 -100.51500 34578 ft 497 kts 24°
2026-04-23 23:24 35.48421 -100.47388 34578 ft 498 kts 24°
2026-04-23 23:24 35.54481 -100.43264 34574 ft 498 kts 24°
2026-04-23 23:25 35.60537 -100.39126 34596 ft 498 kts 24°
2026-04-23 23:25 35.66602 -100.34981 34599 ft 499 kts 24°
2026-04-23 23:26 35.72666 -100.30825 34615 ft 499 kts 24°
2026-04-23 23:26 35.78726 -100.26667 34615 ft 499 kts 24°
2026-04-23 23:26 35.81761 -100.24580 34789 ft 499 kts 20°
2026-04-23 23:27 35.84781 -100.22431 34688 ft 503 kts 20°
2026-04-23 23:27 35.90853 -100.18234 34628 ft 505 kts 20°
2026-04-23 23:28 35.96988 -100.13993 34609 ft 506 kts 20°
2026-04-23 23:28 36.03136 -100.09740 34591 ft 506 kts 20°
2026-04-23 23:29 36.09303 -100.05611 34190 ft 482 kts 11°
2026-04-23 23:29 36.12369 -100.04973 27738 ft 475 kts 355°
2026-04-23 23:29 36.15676 -100.03091 22793 ft 532 kts 31°
2026-04-23 23:29 36.18050 -99.99842 17234 ft 491 kts 59°
2026-04-23 23:30 36.19197 -99.96107 12073 ft 442 kts 78°
2026-04-23 23:30 36.19780 -99.92481 8426 ft 422 kts 82°
2026-04-23 23:30 36.20177 -99.89331 7863 ft 306 kts 83°
2026-04-23 23:30 36.20478 -99.87087 7276 ft 232 kts 81°
2026-04-23 23:31 36.20746 -99.85294 4838 ft 218 kts 78°
2026-04-23 23:31 36.21242 -99.83377 3240 ft 220 kts 59°
2026-04-23 23:31 36.21974 -99.81876 3185 ft 192 kts 54°
2026-04-23 23:31 36.22685 -99.80586 3072 ft 171 kts 46°
2026-04-23 23:32 36.23522 -99.79504 2873 ft 178 kts 36°
2026-04-23 23:32 36.24496 -99.78706 2704 ft 159 kts 24°
2026-04-23 23:32 36.25470 -99.78107 2585 ft 150 kts 21°
2026-04-23 23:32 36.26426 -99.77757 2514 ft 138 kts
2026-04-23 23:33 36.27380 -99.77652 2387 ft 141 kts
2026-04-23 23:33 36.28337 -99.77650 2302 ft 131 kts 358°
2026-04-23 23:33 36.29171 -99.77651 2220 ft 86 kts 360°
2026-04-23 23:33 36.29327 -99.77651 2214 ft 0 kts
2026-04-23 23:34 36.23669 -99.79357 2848 ft 176 kts 33°
2026-04-23 23:34 36.24646 -99.78607 2685 ft 158 kts 24°
2026-04-23 23:34 36.25618 -99.78031 2563 ft 148 kts 18°
2026-04-23 23:34 36.26573 -99.77725 2472 ft 137 kts
2026-04-23 23:35 36.27533 -99.77648 2375 ft 141 kts 360°
2026-04-23 23:35 36.28465 -99.77651 2275 ft 130 kts 358°
2026-04-23 23:35 36.29244 -99.77651 2218 ft 62 kts
2026-04-23 23:35 36.29327 -99.77651 2216 ft 0 kts
2026-04-23 23:36 36.29332 -99.77651 2216 ft 0 kts
2026-04-23 23:36 36.29333 -99.77651 2216 ft 0 kts
2026-04-23 23:36 36.29387 -99.77650 2214 ft 40 kts
2026-04-23 23:37 36.29992 -99.77647 2209 ft 126 kts
2026-04-23 23:37 36.30731 -99.77576 3070 ft 95 kts 351°
2026-04-23 23:37 36.31332 -99.77869 2148 ft 9 kts 201°